Weather History for Mt. Clemens, MI

Change the Weather History Date:

Tuesday, July 16, 2013

  Actual Average Record
Temperature  
Mean Temperature 80 °F -  
Max Temperature 88 °F 82 °F 101 °F (1988)
Min Temperature 73 °F 61 °F 51 °F (1966)
Cooling Degree Days 15    
Growing Degree Days 30 (Base 50)    
Moisture  
Dew Point 75 °F    
Average Humidity 88    
Maximum Humidity 100    
Minimum Humidity 69    
Precipitation  
Precipitation 0.00 in - - ()
Sea Level Pressure  
Sea Level Pressure 30.27 in    
Wind  
Wind Speed 3 mph (WNW)    
Max Wind Speed 13 mph    
Max Gust Speed -    
Visibility 8 miles    
Events Rain , Thunderstorm    
Averages and records for this station are not official NWS values.
T = Trace of Precipitation, MM = Missing Value Source: NWS Daily Summary

Daily Weather History Graph

Daily Weather History Graph

Search for Another Location

Airport:

Trip Planner

Search our weather history database for the weather conditions in past years. The results will help you decide how hot, cold, wet, or windy it might be!

Date:

Astronomy

Jul. 16, 2013 Rise Set
Actual Time 6:08 AM EDT 9:06 PM EDT
Civil Twilight 5:34 AM EDT 9:39 PM EDT
Nautical Twilight 4:51 AM EDT 10:22 PM EDT
Astronomical Twilight 4:01 AM EDT 11:12 PM EDT
Moon 2:43 PM EDT (7/16) 12:41 AM EDT (7/16)
Length of Visible Light 16h 05m
Length of Day
14h 58m
First Quarter, 56% of the Moon is Illuminated
Jul 16
First Quarter
Jul 22
Full
Jul 29
Last Quarter
Aug 6
New
Aug 14
First Quarter

Hourly Weather History & Observations

Time (EDT) Temp. Heat Index Dew Point Humidity Pressure Visibility Wind Dir Wind Speed Gust Speed Precip Events Conditions
12:58 AM 77.0 °F - 75.6 °F 95% 30.27 in 10.0 mi Calm Calm - N/A   Overcast
1:58 AM 76.6 °F - 75.6 °F 96% 30.27 in 10.0 mi NNE 2.3 mph - N/A   Scattered Clouds
2:23 AM 75.2 °F - 75.2 °F 100% 30.26 in 9.0 mi NNE 2.3 mph - N/A   Clear
2:58 AM 75.0 °F - 74.8 °F 99% 30.26 in 8.0 mi North 2.3 mph - N/A   Mostly Cloudy
3:23 AM 75.2 °F - 75.2 °F 100% 30.27 in 10.0 mi NNW 1.2 mph - N/A   Mostly Cloudy
3:43 AM 75.2 °F - 75.2 °F 100% 30.27 in 9.0 mi NNW 2.3 mph - N/A   Mostly Cloudy
3:58 AM 75.2 °F - 75.0 °F 99% 30.27 in 9.0 mi North 1.2 mph - N/A   Scattered Clouds
4:08 AM 75.2 °F - 75.2 °F 100% 30.27 in 10.0 mi NNE 2.3 mph - N/A   Partly Cloudy
4:13 AM 75.2 °F - 75.2 °F 100% 30.27 in 9.0 mi NNE 1.2 mph - N/A   Partly Cloudy
4:38 AM 75.2 °F - 75.2 °F 100% 30.27 in 7.0 mi Calm Calm - N/A   Clear
4:58 AM 74.5 °F - 74.1 °F 99% 30.27 in 7.0 mi North 2.3 mph - N/A   Clear
5:08 AM 73.4 °F - 73.4 °F 100% 30.27 in 6.0 mi North 2.3 mph - N/A   Partly Cloudy
5:13 AM 75.2 °F - 73.4 °F 94% 30.27 in 5.0 mi NNW 2.3 mph - N/A   Partly Cloudy
5:22 AM 75.2 °F - 73.4 °F 94% 30.28 in 5.0 mi Calm Calm - N/A   Light Drizzle
5:23 AM 75.2 °F - 73.4 °F 94% 30.28 in 5.0 mi Calm Calm - N/A   Partly Cloudy
5:25 AM 75.2 °F - 73.4 °F 94% 30.28 in 5.0 mi Calm Calm - N/A   Light Drizzle
5:32 AM 75.2 °F - 73.4 °F 94% 30.28 in 3.0 mi Calm Calm - N/A   Partly Cloudy
5:47 AM 73.4 °F - 73.4 °F 100% 30.28 in 5.0 mi Calm Calm - N/A   Partly Cloudy
5:58 AM 73.8 °F - 73.4 °F 99% 30.28 in 4.0 mi Calm Calm - 0.00 in   Partly Cloudy
6:03 AM 73.4 °F - 73.4 °F 100% 30.28 in 1.5 mi NW 1.2 mph - N/A   Partly Cloudy
6:08 AM 73.4 °F - 73.4 °F 100% 30.28 in 1.5 mi WNW 2.3 mph - N/A   Clear
6:13 AM 73.4 °F - 73.4 °F 100% 30.29 in 2.5 mi NW 2.3 mph - N/A   Clear
6:18 AM 73.4 °F - 73.4 °F 100% 30.29 in 3.0 mi NW 1.2 mph - N/A   Clear
6:55 AM 75.0 °F - 75.0 °F 100% 30.30 in 3.0 mi Calm Calm - N/A   Scattered Clouds
7:55 AM 78.4 °F - 77.5 °F 97% 30.31 in 4.0 mi Calm Calm - N/A   Mostly Cloudy
8:55 AM 80.4 °F 86.5 °F 76.5 °F 88% 30.32 in 5.0 mi Calm Calm - N/A   Mostly Cloudy
9:55 AM 83.3 °F 91.8 °F 76.3 °F 79% 30.31 in 7.0 mi WSW 3.5 mph - N/A   Mostly Cloudy
10:55 AM 83.8 °F 91.4 °F 74.8 °F 74% 30.32 in 7.0 mi NW 3.5 mph - N/A   Mostly Cloudy
11:55 AM 86.5 °F 95.9 °F 75.4 °F 69% 30.31 in 10.0 mi West 3.5 mph - N/A   Scattered Clouds
12:55 PM 87.1 °F 99.8 °F 77.7 °F 74% 30.30 in 10.0 mi ESE 5.8 mph - N/A   Mostly Cloudy
1:55 PM 85.8 °F 97.3 °F 77.4 °F 76% 30.29 in 10.0 mi ESE 6.9 mph - N/A   Scattered Clouds
2:55 PM 87.6 °F 99.2 °F 76.6 °F 70% 30.27 in 10.0 mi Variable 3.5 mph - N/A   Scattered Clouds
3:25 PM 87.8 °F 99.7 °F 77.0 °F 70% 30.26 in 10.0 mi SSE 8.1 mph - N/A Thunderstorm Mostly Cloudy
3:55 PM 83.8 °F 93.9 °F 77.4 °F 81% 30.28 in 10.0 mi South 11.5 mph - N/A Thunderstorm Mostly Cloudy
4:05 PM 82.4 °F 92.4 °F 78.8 °F 89% 30.25 in 10.0 mi South 9.2 mph - N/A Rain , Thunderstorm Light Thunderstorms and Rain
4:28 PM 82.4 °F 89.5 °F 75.2 °F 79% 30.25 in 10.0 mi SSW 12.7 mph - N/A Thunderstorm Mostly Cloudy
4:55 PM 82.6 °F 89.9 °F 75.4 °F 79% 30.27 in 10.0 mi SSW 11.5 mph - N/A Thunderstorm Mostly Cloudy
5:11 PM 84.2 °F 92.3 °F 75.2 °F 74% 30.24 in 10.0 mi SSW 8.1 mph - N/A   Mostly Cloudy
5:55 PM 86.7 °F 97.8 °F 76.8 °F 72% 30.25 in 10.0 mi SSW 6.9 mph - N/A   Mostly Cloudy
6:55 PM 85.5 °F 95.0 °F 75.7 °F 73% 30.25 in 10.0 mi WSW 9.2 mph - N/A   Mostly Cloudy
7:23 PM 84.2 °F 90.9 °F 73.4 °F 70% 30.23 in 10.0 mi West 9.2 mph - N/A Thunderstorm Mostly Cloudy
7:32 PM 84.2 °F 90.9 °F 73.4 °F 70% 30.23 in 10.0 mi West 10.4 mph - N/A Thunderstorm Thunderstorm
7:53 PM 84.2 °F 90.9 °F 73.4 °F 70% 30.23 in 10.0 mi WSW 4.6 mph - N/A   Mostly Cloudy
7:57 PM 84.2 °F 91.6 °F 74.1 °F 72% 30.25 in 10.0 mi West 3.5 mph - N/A   Mostly Cloudy
8:58 PM 81.3 °F 88.3 °F 76.3 °F 85% 30.24 in 10.0 mi SSE 5.8 mph - N/A   Clear
9:58 PM 79.2 °F - 77.2 °F 94% 30.24 in 10.0 mi South 5.8 mph - N/A   Clear
10:58 PM 81.5 °F 89.5 °F 77.7 °F 88% 30.25 in 10.0 mi SSW 4.6 mph - N/A   Clear
11:58 PM 78.3 °F - 77.4 °F 97% 30.25 in 10.0 mi WNW 2.3 mph - N/A   Clear